Cam Ranh Airport
VVCR : now visible

Aeroporto :











RITROVATECI SU...

 
LOGIN :

Iscrizione | Disclaimer

   EN    FR    IT 

 









Sommario :    VFR   VFR Marginale   IFR   IFR Intensivo   IFR Molto Intensivo
Visibilità : 
Base nubi : 
>= 8 km
>= 3000ft
5 / 8 km
1000 / 3000 ft
1500m / 5 km
500 / 1000 ft
800 / 1500m
200 / 500 ft
< 800m
< 200 ft
Simboli :   Temporali  Nebbia  Neve Forte  Precipitazioni Forti  Vento > 20 kt






- Altitudine del aeroporto : 40 ft
- Codice IATA : CXR


VVCR - Cam Ranh

ULTIMO METAR :
  • 261200Z 04013KT 9999 FEW015 28/25 Q1014 NOSIG

METARs OBSOLETI :
  • 261130Z 04015KT 9999 FEW015 28/24 Q1013 NOSIG
  • 261100Z 04014KT 9999 FEW015 28/25 Q1013 NOSIG
  • 261030Z 05015KT 9999 FEW015 28/25 Q1013 NOSIG
  • 261000Z 04016KT 9999 FEW015 28/26 Q1012 NOSIG
  • 260930Z 05015KT 9999 FEW015 29/25 Q1012 NOSIG

TAF TAF VVCR
Valido dal 26 a 12 ore il 27 a 12 ore UTC


261100Z 2612/2712 05015KT 9999 FEW015
TEMPO 2620/2624 4000 SHRA SCT013 FEW015CB SCT060
FIR VVTS / Asia



MetMap, La meteo Aeronautica in un colpo d'occhio ! - Copyright ORBIFLY Dicembre 2007 - Disclaimer

ORBIFLY MET'MAP TEAM :

Programmazione e sviluppo : Alexandra Zaïnal
Concezione : Baudouin d'Aumeries
Aiuto per la programmazione : Marc-Olivier Méhu
Supporto tecnico e logistico : Manuel Goepfert
Aiuto per la traduzione : Arnaldo La Scala

Contatto : metmap@orbifly.com




FONTI E CREDITI :

   NOAA       Earth
Advisory